Regional Weather Roundup
Issued by NWS

Home | Current Version | Previous Version | Text Only | Print | Product List | Glossary Off
Versions: 1 2 3 4 5 6 7 8 9 10 11 12 13 14 15 16 17 18 19 20 21 22 23 24 25 26 27 28 29 30 31 32 33 34 35 36 37 38 39 40 41 42 43 44 45 46 47 48 49 50

000
ASUS45 KPSR 231910
RWRAZ

ARIZONA HOURLY REGIONAL WEATHER ROUNDUP
NATIONAL WEATHER SERVICE PHOENIX AZ
1200 PM MST SAT MAY 23 2015

NOTE: FAIR INDICATES FEW OR NO CLOUDS BELOW 12,000 FEET WITH NO
SIGNIFICANT WEATHER AND/OR OBSTRUCTIONS TO VISIBILITY.

AZZ001>003-036-232000-
NORTHWEST ARIZONA

CITY           SKY/WX    TMP DP  RH WIND       PRES   REMARKS
BULLHEAD CITY  SUNNY     77  41  27 SW12G18   29.93F
KINGMAN        MOSUNNY   68  37  32 SW12G24   30.01S
$$

AZZ004>008-015-016-018-232000-
NORTH CENTRAL ARIZONA

CITY           SKY/WX    TMP DP  RH WIND       PRES   REMARKS
GRAND CANYON   LGT RAIN  46  39  76 NW8       30.07S
WILLIAMS       CLOUDY    52  34  50 W12G20    30.16S
PRESCOTT       CLOUDY    60  32  34 SW15      30.07S
FLAGSTAFF      CLOUDY    51  32  48 W10G18    30.10F
PAYSON         MOSUNNY   61  32  33 VRB6G15   30.09F
PAGE           LGT RAIN  54  45  71 VRB6      30.01S
$$

AZZ009>014-017-232000-
NORTHEAST ARIZONA

CITY           SKY/WX    TMP DP  RH WIND       PRES   REMARKS
WINSLOW        PTSUNNY   63  31  30 W8        30.03F
SAINT JOHNS    SUNNY     62  20  19 MISG      30.03F
WINDOW ROCK    CLOUDY    56  26  31 W14G24    30.06F
SHOW LOW       PTSUNNY   55  23  28 S10G20    30.10S
$$

AZZ023-232000-
GREATER PHOENIX AREA

CITY           SKY/WX    TMP DP  RH WIND       PRES   REMARKS
PHOENIX        MOSUNNY   77  37  23 CALM      29.98F
BUCKEYE        SUNNY     73  39  29 SW7       30.00F
GLENDALE       MOSUNNY   75  39  27 SW9G17    30.00F
LUKE AFB       MOSUNNY   77  39  25 S12G24    29.97F
DEER VALLEY    SUNNY     74  36  25 SW10G17   29.99F
SCOTTSDALE     MOSUNNY   73  35  25 SW7       30.01F
MESA-FALCON    MOSUNNY   72  36  26 NW6       30.00F
MESA-GATEWAY   MOSUNNY   73  37  27 SW9       30.02F
CHANDLER       MOSUNNY   75  37  25 S8        30.00F
$$

AZZ027-028-232000-
SOUTHWEST MARICOPA COUNTY AND PINAL COUNTY

CITY           SKY/WX    TMP DP  RH WIND       PRES   REMARKS
CASA GRANDE    MOSUNNY   73  37  27 S8        29.99F
GILA BEND      FAIR      77  39  24 S6G18     29.98F
$$

AZZ503-504-507>509-232000-
SOUTHEAST ARIZONA

CITY           SKY/WX    TMP DP  RH WIND       PRES   REMARKS
TUCSON         SUNNY     71  26  18 W7        30.04F
DAVIS-MONTHAN  SUNNY     70  29  21 VRB7      30.02F
RYAN FIELD       N/A     73  30  20 S6        30.04F
NOGALES        SUNNY     72  22  15 SW9       30.05F
SIERRA VISTA   SUNNY     70  20  14 E8G17     30.06F
DOUGLAS        SUNNY     70  22  16 SE6       30.03F
SAFFORD        SUNNY     73  31  21 W10       29.99F
$$

AZZ020-021-025-026-031-232000-
SOUTHWEST ARIZONA

CITY           SKY/WX    TMP DP  RH WIND       PRES   REMARKS
YUMA           SUNNY     79  44  28 VRB5      29.98F
$$

CAZ031-033-041-043-047-048-061-232000-
SOUTHERN CALIFORNIA

CITY           SKY/WX    TMP DP  RH WIND       PRES   REMARKS
DOWNTOWN L.A.  PTSUNNY   69  54  58 VRB3      30.07F
L.A. AIRPORT   MOSUNNY   65  54  67 W12       30.09S
SAN DIEGO      MOSUNNY   67  51  56 W12       30.12F
BURBANK        CLOUDY    66  48  52 SE8       30.07S
ONTARIO        CLOUDY    63  52  67 VRB5      30.09S
RIVERSIDE      CLOUDY    65  49  56 W3        30.08F
PALM SPRINGS   SUNNY     77  45  32 NW10G23   29.97F
EL CENTRO NAS  SUNNY     80  44  27 SW12      29.98F
IMPERIAL       SUNNY     78  45  30 VRB7      29.96F
BLYTHE         SUNNY     79  45  29 VRB6      29.95F
NEEDLES        SUNNY     81  39  22 S12       29.93F
$$

NVZ020-UTZ003-232000-
SOUTHERN NEVADA-UTAH

CITY           SKY/WX    TMP DP  RH WIND       PRES   REMARKS
LAS VEGAS      MOSUNNY   75  40  28 SE9       29.88F
SALT LAKE CITY CLOUDY    56  46  69 NW7       29.94S
$$

NMZ009-TXZ055-232000-
NEW MEXICO-WEST TEXAS

CITY           SKY/WX    TMP DP  RH WIND       PRES   REMARKS
ALBUQUERQUE    MOSUNNY   67  30  25 VRB5      30.00F
EL PASO        MOSUNNY   78  22  12 SW16      29.98F
$$


........................KEY........................
SKY/WX - SKY CONDITION/WEATHER
TMP    - TEMPERATURE IN FAHRENHEIT
DP     - DEW POINT IN FAHRENHEIT
RH     - RELATIVE HUMIDITY IN PERCENT
WIND   - DIRECTION AND SPEED IN MILES PER HOUR (MPH)
VRB    - VARIABLE WIND DIRECTION
PRES   - MEAN SEA LEVEL PRESSURE IN INCHES OF MERCURY
         F - FALLING PRESSURE   R - RISING PRESSURE
         S - STEADY PRESSURE
VSB    - VISIBILITY IN MILES
HX     - HEAT INDEX IN FAHRENHEIT
WCI    - WIND CHILL INDEX IN FAHRENHEIT
TC     - TEMPERATURE IN CELSIUS WHICH IS ALSO KNOWN AS
         TEMPERATURE IN CENTIGRADE
AFB    - AIR FORCE BASE
         LUKE AFB IS LUKE AIR FORCE BASE
         DAVIS-MONTHAN IS DAVIS-MONTHAN AIR FORCE BASE
NAS    - NAVAL AIR STATION
         EL CENTRO NAS IS EL CENTRO NAVAL AIR STATION
N/A    - NOT AVAILABLE




USA.gov is the U.S. government's official web portal to all federal, state and local government web resources and services.